Location: Campillo
(40.8621°N, 4.2488°W)
Time: 15:29:58
(UTC+00:00)

Cosmos 1777 Rocket - Pass Details

Date: 30 September 2021
Orbit: 759 x 775 km, 74.0° (Epoch: 23 October)

Event Time Altitude Azimuth Distance (km) Brightness Sun altitude
Rises 18:29:09 0° 199° (SSW) 3,222 7.5 -6.2°
Reaches altitude 10° 18:31:31 10° 200° (SSW) 2,298 6.7 -6.7°
Maximum altitude 18:36:45 85° 289° (WNW) 773 4.1 -7.7°
Drops below altitude 10° 18:41:59 10° 18° (NNE) 2,303 6.3 -8.7°
Sets 18:44:22 0° 19° (NNE) 3,231 7.1 -9.1°
